| time (UTC) | temp C | wind direction | speed KPH | gust KPH | rain 1hr cm | rain 24hr cm | rain mn cm | humidity % | barometer mb |
| 20260510004504 | 2 | 144 | 1.6 | 8.0 | 0.00 | 0.00 | 0.00 | 67 | 1018.8 |
| 20260510003604 | 2 | 147 | 3.2 | 4.8 | 0.00 | 0.00 | 0.00 | 66 | 1018.8 |
| 20260510002704 | 2 | 147 | 1.6 | 4.8 | 0.00 | 0.00 | 0.00 | 66 | 1018.8 |
| 20260510001804 | 2 | 150 | 3.2 | 4.8 | 0.00 | 0.00 | 0.00 | 66 | 1018.8 |
| 20260510000904 | 2 | 157 | 3.2 | 9.7 | 0.00 | 0.00 | 0.00 | 65 | 1018.9 |
| 20260510000004 | 2 | 157 | 3.2 | 8.0 | 0.00 | 0.00 | 0.00 | 66 | 1018.9 |
| 20260509235404 | 2 | 153 | 3.2 | 8.0 | 0.00 | 0.00 | 0.00 | 68 | 1018.9 |
| 20260509234504 | 2 | 116 | 1.6 | 6.4 | 0.00 | 0.00 | 0.00 | 67 | 1019.1 |
| 20260509233604 | 2 | 331 | 1.6 | 4.8 | 0.00 | 0.00 | 0.00 | 68 | 1019.2 |
| 20260509232704 | 2 | 321 | 1.6 | 3.2 | 0.00 | 0.00 | 0.00 | 69 | 1019.3 |
| 20260509231804 | 2 | 321 | 1.6 | 4.8 | 0.00 | 0.00 | 0.00 | 69 | 1019.4 |
| 20260509230904 | 1 | 321 | 1.6 | 6.4 | 0.00 | 0.00 | 0.00 | 69 | 1019.5 |
| 20260509230025 | 1 | 320 | 0.0 | 3.2 | 0.00 | 0.00 | 0.00 | 70 | 1019.6 |
| 20260509225404 | 1 | 0 | 0.0 | 0.0 | 0.00 | 0.00 | 0.00 | 70 | 1019.6 |
| 20260509224504 | 2 | 0 | 0.0 | 0.0 | 0.00 | 0.00 | 0.00 | 68 | 1019.8 |
| 20260509223604 | 2 | 0 | 0.0 | 0.0 | 0.00 | 0.00 | 0.00 | 67 | 1019.8 |
| 20260509222704 | 2 | 0 | 0.0 | 0.0 | 0.00 | 0.00 | 0.00 | 67 | 1019.8 |
| 20260509221804 | 2 | 0 | 0.0 | 0.0 | 0.00 | 0.00 | 0.00 | 67 | 1019.9 |
| 20260509220904 | 3 | 0 | 0.0 | 0.0 | 0.00 | 0.00 | 0.00 | 69 | 1019.9 |
| 20260509220004 | 3 | 0 | 0.0 | 0.0 | 0.00 | 0.00 | 0.00 | 65 | 1020.0 |
| 20260509215404 | 3 | 0 | 0.0 | 0.0 | 0.00 | 0.00 | 0.00 | 63 | 1020.1 |
| 20260509214504 | 3 | 0 | 0.0 | 0.0 | 0.00 | 0.00 | 0.00 | 64 | 1020.2 |
| 20260509213604 | 3 | 0 | 0.0 | 0.0 | 0.00 | 0.00 | 0.00 | 64 | 1020.3 |
| 20260509212704 | 3 | 0 | 0.0 | 0.0 | 0.00 | 0.00 | 0.00 | 63 | 1020.3 |
| 20260509211804 | 3 | 0 | 0.0 | 0.0 | 0.00 | 0.00 | 0.00 | 63 | 1020.2 |
| 20260509210904 | 3 | 0 | 0.0 | 0.0 | 0.00 | 0.00 | 0.00 | 64 | 1020.4 |
| 20260509210004 | 3 | 0 | 0.0 | 0.0 | 0.00 | 0.00 | 0.00 | 70 | 1020.3 |
| 20260509205425 | 3 | 0 | 0.0 | 0.0 | 0.00 | 0.00 | 0.00 | 66 | 1020.3 |
| 20260509204504 | 3 | 0 | 0.0 | 0.0 | 0.00 | 0.00 | 0.00 | 65 | 1020.4 |
| 20260509203604 | 3 | 0 | 0.0 | 0.0 | 0.00 | 0.00 | 0.00 | 63 | 1020.4 |
| 20260509202704 | 3 | 0 | 0.0 | 0.0 | 0.00 | 0.00 | 0.00 | 64 | 1020.3 |
| 20260509201804 | 4 | 0 | 0.0 | 0.0 | 0.00 | 0.00 | 0.00 | 65 | 1020.4 |
| 20260509200904 | 5 | 321 | 0.0 | 3.2 | 0.00 | 0.00 | 0.00 | 63 | 1020.4 |
| 20260509200025 | 5 | 320 | 1.6 | 3.2 | 0.00 | 0.00 | 0.00 | 60 | 1020.4 |
| 20260509195404 | 4 | 321 | 0.0 | 3.2 | 0.00 | 0.00 | 0.00 | 61 | 1020.4 |
| 20260509194504 | 4 | 0 | 0.0 | 0.0 | 0.00 | 0.00 | 0.00 | 62 | 1020.4 |
| 20260509193604 | 5 | 0 | 0.0 | 0.0 | 0.00 | 0.00 | 0.00 | 62 | 1020.4 |
| 20260509192704 | 5 | 321 | 0.0 | 1.6 | 0.00 | 0.00 | 0.00 | 62 | 1020.4 |
| 20260509191804 | 5 | 320 | 0.0 | 1.6 | 0.00 | 0.00 | 0.00 | 60 | 1020.4 |
| 20260509190925 | 6 | 321 | 3.2 | 6.4 | 0.00 | 0.00 | 0.00 | 59 | 1020.3 |
| 20260509190004 | 6 | 320 | 1.6 | 4.8 | 0.00 | 0.00 | 0.00 | 53 | 1020.3 |
| 20260509185404 | 6 | 320 | 0.0 | 3.2 | 0.00 | 0.00 | 0.00 | 54 | 1020.4 |
| 20260509184525 | 7 | 321 | 0.0 | 3.2 | 0.00 | 0.00 | 0.00 | 54 | 1020.4 |
| 20260509183604 | 8 | 321 | 0.0 | 3.2 | 0.00 | 0.00 | 0.00 | 51 | 1020.4 |
| 20260509182725 | 8 | 0 | 0.0 | 0.0 | 0.00 | 0.00 | 0.00 | 47 | 1020.4 |
| 20260509181804 | 10 | 321 | 1.6 | 4.8 | 0.00 | 0.00 | 0.00 | 46 | 1020.3 |
| 20260509180904 | 10 | 321 | 4.8 | 8.0 | 0.00 | 0.00 | 0.00 | 41 | 1020.2 |
| 20260509180004 | 11 | 319 | 8.0 | 16.1 | 0.00 | 0.00 | 0.00 | 39 | 1020.2 |
| 20260509175404 | 11 | 326 | 12.9 | 19.3 | 0.00 | 0.00 | 0.00 | 38 | 1020.2 |
| 20260509174504 | 11 | 324 | 11.3 | 19.3 | 0.00 | 0.00 | 0.00 | 37 | 1020.0 |
| 20260509173603 | 12 | 322 | 14.5 | 22.5 | 0.00 | 0.00 | 0.00 | 37 | 1020.1 |
| 20260509172725 | 12 | 317 | 11.3 | 22.5 | 0.00 | 0.00 | 0.00 | 38 | 1020.1 |
| 20260509171825 | 12 | 316 | 11.3 | 17.7 | 0.00 | 0.00 | 0.00 | 37 | 1020.2 |
| 20260509170904 | 12 | 319 | 11.3 | 17.7 | 0.00 | 0.00 | 0.00 | 38 | 1020.2 |
| 20260509170025 | 12 | 314 | 11.3 | 17.7 | 0.00 | 0.00 | 0.00 | 38 | 1020.2 |
| 20260509165404 | 12 | 306 | 11.3 | 20.9 | 0.00 | 0.00 | 0.00 | 39 | 1020.2 |
| 20260509164504 | 13 | 308 | 8.0 | 19.3 | 0.00 | 0.00 | 0.00 | 39 | 1020.2 |
| 20260509163604 | 13 | 317 | 9.7 | 17.7 | 0.00 | 0.00 | 0.00 | 39 | 1020.2 |
| 20260509162704 | 14 | 289 | 8.0 | 16.1 | 0.00 | 0.00 | 0.00 | 36 | 1020.3 |
| 20260509161804 | 15 | 159 | 9.7 | 17.7 | 0.00 | 0.00 | 0.00 | 36 | 1020.1 |
| 20260509160904 | 15 | 172 | 8.0 | 24.1 | 0.00 | 0.00 | 0.00 | 36 | 1020.2 |
| 20260509160004 | 16 | 174 | 9.7 | 22.5 | 0.00 | 0.00 | 0.00 | 34 | 1020.3 |
| 20260509155404 | 16 | 169 | 9.7 | 22.5 | 0.00 | 0.00 | 0.00 | 34 | 1020.3 |
| 20260509154504 | 16 | 174 | 6.4 | 22.5 | 0.00 | 0.00 | 0.00 | 34 | 1020.5 |
| 20260509153625 | 16 | 170 | 8.0 | 22.5 | 0.00 | 0.00 | 0.00 | 34 | 1020.5 |
| 20260509152725 | 16 | 157 | 8.0 | 22.5 | 0.00 | 0.00 | 0.00 | 36 | 1020.6 |
| 20260509151804 | 15 | 171 | 6.4 | 12.9 | 0.00 | 0.00 | 0.00 | 38 | 1020.8 |
| 20260509150903 | 15 | 172 | 8.0 | 16.1 | 0.00 | 0.00 | 0.00 | 37 | 1021.0 |
| 20260509150004 | 15 | 174 | 4.8 | 16.1 | 0.00 | 0.00 | 0.00 | 37 | 1021.1 |
| 20260509145404 | 15 | 218 | 3.2 | 6.4 | 0.00 | 0.00 | 0.00 | 37 | 1021.1 |
| 20260509144503 | 15 | 172 | 3.2 | 9.7 | 0.00 | 0.00 | 0.00 | 35 | 1021.2 |
| 20260509143625 | 15 | 176 | 6.4 | 16.1 | 0.00 | 0.00 | 0.00 | 34 | 1021.4 |
| 20260509142703 | 15 | 149 | 3.2 | 9.7 | 0.00 | 0.00 | 0.00 | 38 | 1021.4 |
| 20260509141804 | 15 | 139 | 4.8 | 8.0 | 0.00 | 0.00 | 0.00 | 37 | 1021.5 |
| 20260509140904 | 15 | 140 | 8.0 | 16.1 | 0.00 | 0.00 | 0.00 | 36 | 1021.7 |
| 20260509140005 | 15 | 154 | 8.0 | 19.3 | 0.00 | 0.00 | 0.00 | 35 | 1021.8 |
| 20260509135403 | 15 | 169 | 9.7 | 14.5 | 0.00 | 0.00 | 0.00 | 35 | 1022.0 |
| 20260509134504 | 16 | 170 | 8.0 | 16.1 | 0.00 | 0.00 | 0.00 | 35 | 1022.0 |
| 20260509133603 | 15 | 235 | 4.8 | 11.3 | 0.00 | 0.00 | 0.00 | 35 | 1022.3 |
| 20260509132704 | 15 | 184 | 4.8 | 17.7 | 0.00 | 0.00 | 0.00 | 34 | 1022.4 |
| 20260509131803 | 15 | 183 | 6.4 | 17.7 | 0.00 | 0.00 | 0.00 | 35 | 1022.5 |
| 20260509130904 | 15 | 175 | 9.7 | 22.5 | 0.00 | 0.00 | 0.00 | 34 | 1022.6 |
| 20260509130004 | 15 | 163 | 11.3 | 22.5 | 0.00 | 0.00 | 0.00 | 34 | 1022.8 |
| 20260509125404 | 15 | 170 | 9.7 | 22.5 | 0.00 | 0.00 | 0.00 | 35 | 1022.8 |
| 20260509124525 | 15 | 253 | 6.4 | 17.7 | 0.00 | 0.00 | 0.00 | 35 | 1022.8 |
| 20260509123603 | 15 | 229 | 6.4 | 17.7 | 0.00 | 0.00 | 0.00 | 34 | 1023.0 |
| 20260509122704 | 15 | 186 | 6.4 | 17.7 | 0.00 | 0.00 | 0.00 | 35 | 1023.1 |
| 20260509121804 | 15 | 169 | 8.0 | 19.3 | 0.00 | 0.00 | 0.00 | 35 | 1023.3 |
| 20260509120924 | 15 | 244 | 4.8 | 16.1 | 0.00 | 0.00 | 0.00 | 37 | 1023.4 |
| 20260509120025 | 15 | 201 | 6.4 | 16.1 | 0.00 | 0.00 | 0.00 | 36 | 1023.5 |
| 20260509115403 | 15 | 177 | 6.4 | 16.1 | 0.00 | 0.00 | 0.00 | 36 | 1023.5 |
| 20260509114525 | 15 | 201 | 4.8 | 14.5 | 0.00 | 0.00 | 0.00 | 36 | 1023.5 |
| 20260509113604 | 15 | 176 | 6.4 | 14.5 | 0.00 | 0.00 | 0.00 | 36 | 1023.6 |
| 20260509112704 | 15 | 191 | 6.4 | 12.9 | 0.00 | 0.00 | 0.00 | 35 | 1023.7 |
| 20260509111803 | 15 | 177 | 8.0 | 19.3 | 0.00 | 0.00 | 0.00 | 34 | 1023.8 |
| 20260509110903 | 15 | 174 | 4.8 | 16.1 | 0.00 | 0.00 | 0.00 | 37 | 1023.7 |
| 20260509110004 | 15 | 179 | 6.4 | 14.5 | 0.00 | 0.00 | 0.00 | 36 | 1023.8 |
| 20260509105404 | 14 | 202 | 4.8 | 17.7 | 0.00 | 0.00 | 0.00 | 36 | 1023.9 |
| 20260509104504 | 14 | 195 | 6.4 | 20.9 | 0.00 | 0.00 | 0.00 | 36 | 1024.0 |
| 20260509103603 | 14 | 199 | 6.4 | 17.7 | 0.00 | 0.00 | 0.00 | 33 | 1024.1 |
| 20260509102704 | 14 | 196 | 8.0 | 16.1 | 0.00 | 0.00 | 0.00 | 35 | 1024.1 |
| 20260509101803 | 14 | 165 | 9.7 | 24.1 | 0.00 | 0.00 | 0.00 | 35 | 1024.2 |
| 20260509100903 | 14 | 166 | 4.8 | 14.5 | 0.00 | 0.00 | 0.00 | 34 | 1024.3 |
| 20260509100005 | 14 | 176 | 9.7 | 22.5 | 0.00 | 0.00 | 0.00 | 33 | 1024.4 |
| 20260509095403 | 14 | 164 | 14.5 | 24.1 | 0.00 | 0.00 | 0.00 | 35 | 1024.4 |
| 20260509094504 | 15 | 165 | 12.9 | 24.1 | 0.00 | 0.00 | 0.00 | 35 | 1024.5 |
| 20260509093603 | 14 | 179 | 9.7 | 22.5 | 0.00 | 0.00 | 0.00 | 35 | 1024.5 |
| 20260509092704 | 14 | 170 | 14.5 | 30.6 | 0.00 | 0.00 | 0.00 | 33 | 1024.6 |
| 20260509091803 | 14 | 175 | 9.7 | 22.5 | 0.00 | 0.00 | 0.00 | 34 | 1024.6 |
| 20260509090903 | 14 | 170 | 12.9 | 30.6 | 0.00 | 0.00 | 0.00 | 35 | 1024.8 |
| 20260509090004 | 14 | 191 | 6.4 | 17.7 | 0.00 | 0.00 | 0.00 | 37 | 1024.8 |
| 20260509085403 | 14 | 187 | 8.0 | 22.5 | 0.00 | 0.00 | 0.00 | 38 | 1024.8 |
| 20260509084503 | 13 | 177 | 11.3 | 25.7 | 0.00 | 0.00 | 0.00 | 37 | 1025.0 |
| 20260509083625 | 13 | 165 | 12.9 | 25.7 | 0.00 | 0.00 | 0.00 | 36 | 1025.1 |
| 20260509082704 | 13 | 168 | 11.3 | 22.5 | 0.00 | 0.00 | 0.00 | 36 | 1025.2 |
| 20260509081804 | 13 | 182 | 8.0 | 22.5 | 0.00 | 0.00 | 0.00 | 36 | 1025.2 |
| 20260509080903 | 13 | 174 | 11.3 | 22.5 | 0.00 | 0.00 | 0.00 | 37 | 1025.3 |
| 20260509080025 | 13 | 169 | 12.9 | 24.1 | 0.00 | 0.00 | 0.00 | 36 | 1025.3 |
| 20260509075404 | 13 | 155 | 14.5 | 24.1 | 0.00 | 0.00 | 0.00 | 38 | 1025.3 |
| 20260509074525 | 13 | 163 | 12.9 | 27.4 | 0.00 | 0.00 | 0.00 | 37 | 1025.4 |
| 20260509073603 | 13 | 161 | 11.3 | 24.1 | 0.00 | 0.00 | 0.00 | 38 | 1025.5 |
| 20260509072704 | 12 | 166 | 12.9 | 25.7 | 0.00 | 0.00 | 0.00 | 37 | 1025.5 |
| 20260509071825 | 12 | 166 | 14.5 | 27.4 | 0.00 | 0.00 | 0.00 | 39 | 1025.6 |
| 20260509070903 | 12 | 167 | 17.7 | 29.0 | 0.00 | 0.00 | 0.00 | 39 | 1025.7 |
| 20260509070003 | 11 | 165 | 16.1 | 30.6 | 0.00 | 0.00 | 0.00 | 40 | 1025.6 |
| 20260509065453 | 11 | 164 | 14.5 | 25.7 | 0.00 | 0.00 | 0.00 | 41 | 1025.7 |
| 20260509064504 | 11 | 150 | 14.5 | 24.1 | 0.00 | 0.00 | 0.00 | 44 | 1025.7 |
| 20260509063625 | 11 | 151 | 12.9 | 22.5 | 0.00 | 0.00 | 0.00 | 45 | 1025.7 |
| 20260509062725 | 11 | 164 | 11.3 | 24.1 | 0.00 | 0.00 | 0.00 | 45 | 1025.8 |
| 20260509061804 | 10 | 168 | 12.9 | 24.1 | 0.00 | 0.00 | 0.00 | 48 | 1025.8 |
| 20260509060925 | 10 | 156 | 12.9 | 20.9 | 0.00 | 0.00 | 0.00 | 47 | 1025.9 |
| 20260509060004 | 10 | 156 | 12.9 | 20.9 | 0.00 | 0.00 | 0.00 | 47 | 1025.8 |
| 20260509055403 | 9 | 159 | 12.9 | 20.9 | 0.00 | 0.03 | 0.00 | 49 | 1025.8 |
| 20260509054524 | 8 | 151 | 11.3 | 17.7 | 0.00 | 0.03 | 0.00 | 52 | 1025.8 |
| 20260509053625 | 8 | 157 | 9.7 | 17.7 | 0.00 | 0.03 | 0.00 | 54 | 1025.8 |
| 20260509052704 | 8 | 163 | 9.7 | 16.1 | 0.00 | 0.03 | 0.00 | 57 | 1025.9 |
| 20260509050904 | 7 | 161 | 6.4 | 11.3 | 0.00 | 0.03 | 0.00 | 61 | 1025.6 |
| 20260509050004 | 7 | 158 | 6.4 | 11.3 | 0.00 | 0.03 | 0.00 | 60 | 1025.4 |
| 20260509045404 | 7 | 159 | 6.4 | 11.3 | 0.00 | 0.05 | 0.00 | 61 | 1025.9 |
| 20260509044504 | 6 | 155 | 4.8 | 8.0 | 0.00 | 0.05 | 0.00 | 62 | 1025.6 |
| 20260509043604 | 6 | 166 | 4.8 | 9.7 | 0.00 | 0.05 | 0.00 | 63 | 1025.6 |
| 20260509042703 | 5 | 164 | 4.8 | 8.0 | 0.00 | 0.05 | 0.00 | 64 | 1026.0 |
| 20260509041825 | 4 | 165 | 4.8 | 8.0 | 0.00 | 0.08 | 0.00 | 65 | 1026.0 |
| 20260509040925 | 3 | 147 | 3.2 | 8.0 | 0.00 | 0.08 | 0.00 | 67 | 1025.9 |
| 20260509040025 | 2 | 168 | 4.8 | 9.7 | 0.00 | 0.13 | 0.00 | 69 | 1025.0 |
| 20260509035404 | 2 | 172 | 3.2 | 9.7 | 0.00 | 0.13 | 0.00 | 71 | 1023.6 |
| 20260509034503 | 1 | 151 | 3.2 | 8.0 | 0.00 | 0.13 | 0.00 | 71 | 1026.3 |
| 20260509033624 | 1 | 152 | 3.2 | 6.4 | 0.00 | 0.13 | 0.00 | 71 | 1026.3 |
| 20260509032725 | 0 | 165 | 3.2 | 6.4 | 0.00 | 0.13 | 0.00 | 71 | 1026.2 |
| 20260509031824 | 0 | 163 | 4.8 | 8.0 | 0.00 | 0.13 | 0.00 | 72 | 1026.3 |
| 20260509030903 | 0 | 161 | 4.8 | 11.3 | 0.00 | 0.13 | 0.00 | 74 | 1026.3 |
| 20260509030004 | 0 | 171 | 3.2 | 9.7 | 0.00 | 0.13 | 0.00 | 75 | 1026.2 |
| 20260509025404 | 0 | 173 | 3.2 | 9.7 | 0.00 | 0.13 | 0.00 | 76 | 1026.3 |
| 20260509024503 | -1 | 173 | 1.6 | 9.7 | 0.00 | 0.13 | 0.00 | 76 | 1026.3 |
| 20260509023603 | -1 | 151 | 1.6 | 3.2 | 0.00 | 0.13 | 0.00 | 76 | 1026.4 |
| 20260509022703 | -1 | 151 | 0.0 | 3.2 | 0.00 | 0.13 | 0.00 | 76 | 1026.3 |
| 20260509021803 | -1 | 151 | 0.0 | 3.2 | 0.00 | 0.13 | 0.00 | 77 | 1026.3 |
| 20260509020903 | -1 | 151 | 0.0 | 1.6 | 0.00 | 0.13 | 0.00 | 77 | 1026.3 |
| 20260509020024 | -1 | 151 | 0.0 | 1.6 | 0.00 | 0.13 | 0.00 | 77 | 1026.2 |
| 20260509015403 | -1 | 187 | 1.6 | 6.4 | 0.00 | 0.13 | 0.00 | 77 | 1026.3 |
| 20260509014524 | -1 | 206 | 0.0 | 6.4 | 0.00 | 0.13 | 0.00 | 78 | 1026.4 |
| 20260509013604 | -1 | 200 | 0.0 | 3.2 | 0.00 | 0.13 | 0.00 | 78 | 1026.4 |
| 20260509012724 | -1 | 0 | 0.0 | 0.0 | 0.00 | 0.13 | 0.00 | 78 | 1026.4 |
| 20260509011804 | -1 | 120 | 0.0 | 1.6 | 0.00 | 0.13 | 0.00 | 78 | 1026.4 |
| 20260509010903 | -1 | 50 | 0.0 | 4.8 | 0.00 | 0.13 | 0.00 | 77 | 1026.3 |
| 20260509010004 | -1 | 335 | 0.0 | 4.8 | 0.00 | 0.13 | 0.00 | 77 | 1026.3 |
| 20260509005403 | -1 | 335 | 0.0 | 4.8 | 0.00 | 0.13 | 0.00 | 77 | 1026.3 |